TimeCST,TemperatureF,Dew PointF,Humidity,Sea Level PressureIn,VisibilityMPH,Wind Direction,Wind SpeedMPH,Gust SpeedMPH,PrecipitationIn,Events,Conditions,WindDirDegrees,DateUTC
12:15 AM,26.6,19.4,74,29.82,10.0,SE,20.7,31.1,N/A,,Overcast,130,2013-03-04 06:15:00
12:35 AM,26.6,21.2,80,29.82,5.0,SE,21.9,29.9,N/A,,Overcast,130,2013-03-04 06:35:00
12:55 AM,26.6,21.2,80,29.82,4.0,SE,21.9,29.9,N/A,,Overcast,140,2013-03-04 06:55:00
1:15 AM,26.6,21.2,80,29.82,5.0,SE,21.9,28.8,N/A,,Overcast,140,2013-03-04 07:15:00
1:35 AM,26.6,21.2,80,29.82,4.0,SE,23.0,27.6,N/A,,Overcast,130,2013-03-04 07:35:00
1:55 AM,26.6,21.2,80,29.81,2.5,SE,19.6,27.6,N/A,,Overcast,130,2013-03-04 07:55:00
2:15 AM,26.6,21.2,80,29.81,4.0,SE,20.7,27.6,N/A,,Overcast,130,2013-03-04 08:15:00
2:35 AM,26.6,21.2,80,29.81,3.0,SE,18.4,29.9,N/A,,Overcast,130,2013-03-04 08:35:00
2:55 AM,24.8,21.2,86,29.81,2.5,SE,17.3,25.3,N/A,,Overcast,130,2013-03-04 08:55:00
3:15 AM,24.8,21.2,86,29.81,3.0,SE,19.6,26.5,N/A,,Overcast,130,2013-03-04 09:15:00
3:35 AM,26.6,23.0,86,29.81,2.5,SE,19.6,28.8,N/A,,Overcast,140,2013-03-04 09:35:00
3:55 AM,26.6,23.0,86,29.81,1.8,SE,16.1,24.2,N/A,,Overcast,130,2013-03-04 09:55:00
4:15 AM,26.6,23.0,86,29.81,1.5,SE,19.6,23.0,N/A,,Overcast,140,2013-03-04 10:15:00
4:35 AM,26.6,23.0,86,29.82,1.8,SE,17.3,-,N/A,,Overcast,140,2013-03-04 10:35:00
5:15 AM,24.8,23.0,93,29.83,1.2,SE,11.5,-,N/A,,Overcast,140,2013-03-04 11:15:00
5:55 AM,24.8,23.0,93,29.83,1.8,SE,15.0,20.7,N/A,,Overcast,140,2013-03-04 11:55:00
6:15 AM,24.8,23.0,93,29.83,5.0,SE,15.0,-,N/A,,Overcast,140,2013-03-04 12:15:00
6:35 AM,24.8,23.0,93,29.84,3.0,SE,16.1,-,N/A,,Overcast,140,2013-03-04 12:35:00
6:55 AM,24.8,21.2,86,29.83,1.8,SE,16.1,21.9,N/A,,Overcast,140,2013-03-04 12:55:00
7:15 AM,24.8,23.0,93,29.83,2.5,SE,13.8,20.7,N/A,,Overcast,140,2013-03-04 13:15:00
7:35 AM,24.8,23.0,93,29.84,3.0,SE,16.1,20.7,N/A,,Overcast,140,2013-03-04 13:35:00
7:55 AM,26.6,21.2,80,29.83,4.0,SE,15.0,19.6,N/A,,Overcast,140,2013-03-04 13:55:00
8:15 AM,26.6,21.2,80,29.84,10.0,SE,15.0,-,N/A,,Overcast,140,2013-03-04 14:15:00
8:35 AM,26.6,21.2,80,29.83,7.0,SE,16.1,-,N/A,,Overcast,130,2013-03-04 14:35:00
8:55 AM,26.6,21.2,80,29.83,7.0,SE,17.3,23.0,N/A,,Overcast,130,2013-03-04 14:55:00
9:15 AM,26.6,21.2,80,29.83,10.0,SE,17.3,-,N/A,,Overcast,140,2013-03-04 15:15:00
9:35 AM,26.6,21.2,80,29.84,10.0,SE,16.1,-,N/A,,Overcast,140,2013-03-04 15:35:00
9:55 AM,26.6,21.2,80,29.84,5.0,SE,15.0,21.9,N/A,,Overcast,140,2013-03-04 15:55:00
10:15 AM,26.6,21.2,80,29.84,4.0,SE,16.1,20.7,N/A,,Overcast,140,2013-03-04 16:15:00
10:55 AM,26.6,23.0,86,29.84,2.0,SE,17.3,-,N/A,,Overcast,140,2013-03-04 16:55:00
11:15 AM,26.6,23.0,86,29.84,1.8,SE,16.1,-,N/A,,Overcast,140,2013-03-04 17:15:00
11:35 AM,26.6,23.0,86,29.84,1.8,SSE,18.4,21.9,N/A,,Overcast,150,2013-03-04 17:35:00
11:55 AM,26.6,23.0,86,29.84,1.8,SE,18.4,-,N/A,,Overcast,140,2013-03-04 17:55:00
12:55 PM,26.6,23.0,86,29.84,5.0,SE,18.4,25.3,N/A,,Overcast,140,2013-03-04 18:55:00
1:15 PM,26.6,23.0,86,29.84,3.0,SSE,19.6,24.2,N/A,,Overcast,150,2013-03-04 19:15:00
1:35 PM,26.6,23.0,86,29.84,3.0,SE,16.1,24.2,N/A,,Overcast,140,2013-03-04 19:35:00
1:55 PM,26.6,23.0,86,29.84,1.0,SE,19.6,24.2,N/A,,Overcast,140,2013-03-04 19:55:00
2:15 PM,26.6,23.0,86,29.84,1.2,SE,19.6,27.6,N/A,,Overcast,140,2013-03-04 20:15:00
2:35 PM,26.6,23.0,86,29.84,3.0,SE,17.3,-,N/A,,Overcast,140,2013-03-04 20:35:00
2:55 PM,26.6,23.0,86,29.84,5.0,SE,16.1,23.0,N/A,,Overcast,140,2013-03-04 20:55:00
3:55 PM,26.6,23.0,86,29.85,5.0,SE,17.3,23.0,N/A,,Overcast,130,2013-03-04 21:55:00
4:15 PM,26.6,23.0,86,29.85,7.0,SE,15.0,-,N/A,,Overcast,140,2013-03-04 22:15:00
4:55 PM,26.6,23.0,86,29.86,7.0,SE,15.0,24.2,N/A,,Overcast,130,2013-03-04 22:55:00
5:15 PM,26.6,23.0,86,29.87,7.0,SE,16.1,-,N/A,,Overcast,130,2013-03-04 23:15:00
5:35 PM,26.6,23.0,86,29.87,4.0,SE,17.3,20.7,N/A,,Overcast,130,2013-03-04 23:35:00
5:55 PM,26.6,23.0,86,29.89,2.0,SE,18.4,-,N/A,,Overcast,140,2013-03-04 23:55:00
6:15 PM,26.6,23.0,86,29.90,1.8,SE,15.0,23.0,N/A,,Overcast,130,2013-03-05 00:15:00
6:35 PM,26.6,23.0,86,29.91,3.0,SE,12.7,23.0,N/A,,Overcast,140,2013-03-05 00:35:00
6:55 PM,26.6,23.0,86,29.90,4.0,SE,18.4,23.0,N/A,,Overcast,130,2013-03-05 00:55:00
7:15 PM,26.6,23.0,86,29.90,4.0,SE,17.3,24.2,N/A,,Overcast,130,2013-03-05 01:15:00
7:35 PM,24.8,23.0,93,29.91,7.0,SE,17.3,23.0,N/A,,Overcast,130,2013-03-05 01:35:00
7:55 PM,24.8,21.2,86,29.91,10.0,SE,13.8,20.7,N/A,,Overcast,130,2013-03-05 01:55:00
8:15 PM,24.8,21.2,86,29.93,10.0,SE,15.0,-,N/A,,Overcast,140,2013-03-05 02:15:00
8:35 PM,24.8,21.2,86,29.93,10.0,SE,13.8,-,N/A,,Overcast,130,2013-03-05 02:35:00
8:55 PM,24.8,21.2,86,29.93,10.0,SE,12.7,-,N/A,,Overcast,130,2013-03-05 02:55:00
9:35 PM,24.8,21.2,86,29.92,10.0,ESE,12.7,18.4,N/A,,Overcast,120,2013-03-05 03:35:00
9:55 PM,24.8,21.2,86,29.93,10.0,ESE,15.0,-,N/A,,Overcast,120,2013-03-05 03:55:00
10:15 PM,24.8,21.2,86,29.94,10.0,ESE,12.7,-,N/A,,Overcast,120,2013-03-05 04:15:00
10:35 PM,24.8,21.2,86,29.94,10.0,ESE,12.7,-,N/A,,Overcast,120,2013-03-05 04:35:00
10:55 PM,24.8,21.2,86,29.94,10.0,ESE,12.7,17.3,N/A,,Overcast,120,2013-03-05 04:55:00
11:15 PM,24.8,21.2,86,29.94,10.0,ESE,12.7,-,N/A,,Overcast,120,2013-03-05 05:15:00
11:35 PM,24.8,21.2,86,29.94,10.0,ESE,9.2,-,N/A,,Overcast,120,2013-03-05 05:35:00
11:55 PM,24.8,21.2,86,29.94,10.0,ESE,10.4,-,N/A,,Overcast,110,2013-03-05 05:55:00